User: anonymous   Login
Location: Newark
(46.3833°N, 12.2833°E)
Time: 23:49:54
(UTC+00:00)
Language:

LilacSat-2 - Orbit

View from above orbital plane
View from above orbital plane
View from above satellite
View from above satellite

Ground track
Ground track

The orbit data is extracted from the following two-line orbital elements,

1 40908U 15049K   19295.78387821  .00000100  00000-0  91387-5 0  9994
2 40908  97.4837 294.1726 0017201 123.5790   1.2944 15.13869461225889
Epoch (UTC): 22 October 2019 18:48:47
Eccentricity: 0.0017201
inclination: 97.4837°
perigee height: 512 km
apogee height: 536 km
right ascension of ascending node: 294.1726°
argument of perigee: 123.5790°
revolutions per day: 15.13869461
mean anomaly at epoch: 1.2944°
orbit number at epoch: 22588

The dashed part of the orbit path shows where the satellite is in the earth's shadow,  

DLR